Home > Time Zones > World Clock > Weather > Fiji > Nadi > Past weeks

Flag for Fiji Weather past 2 weeks in Nadi, Fiji

Now
63 °F

Passing clouds.


Feels Like: 63 °F
Forecast: 73 / 82 °F
Wind: No wind

Location: Nandi

Current Time: Jul 31, 2014 at 7:04:40 AM

Latest Report: Jul 31, 2014 at 6:00 AM


Visibility: N/A

Pressure: 30.07 "Hg

Humidity: 88%

Dew point: 59 °F

Location of NadiLocation

Historic Weather in Nadi — Graph

°F

Nadi temperature yesterday

Maximum temperature yesterday: 82 °F (at 1:00 PM)
Minimum temperature yesterday: 63 °F (at 3:00 AM)
Average temperature yesterday: 71 °F

Past Weeks' High & Low Weather Summary

 TemperatureHumidityPressure
High82 °F (Jul 19, 12:00 PM)100% (Jul 19, 3:00 AM)30.09 "Hg (Jul 19, 3:00 AM)
Low55 °F (Jul 27, 4:00 AM)42% (Jul 25, 2:00 PM)29.77 "Hg (Jul 22, 4:00 PM)
Average71 °F75%29.95 "Hg
* Reported Jul 16 6:00 AM — Jul 31 6:00 AM, Nadi, Weather by CustomWeather, © 2014

Note: Actual official high and low records may vary slightly from our data, if they occured in-between our weather recording intervals... More about our weather records

Advertising

Nadi weather history for previous 24 hours

 ConditionsComfort  
Time TempWeatherWind HumidityBarometerVisibility
6:00 AM
Jul 31
63 °FPassing clouds.No wind88%30.07 "HgN/A
5:00 AM63 °FPassing clouds.5 mph88%30.07 "HgN/A
4:00 AM63 °FPassing clouds.No wind88%30.07 "HgN/A
3:00 AM61 °FPassing clouds.No wind88%30.07 "HgN/A
2:00 AM63 °FPassing clouds.8 mph88%30.07 "HgN/A
1:00 AM63 °FPassing clouds.5 mph88%30.07 "HgN/A
12:00 AM63 °FPassing clouds.5 mph88%30.07 "HgN/A
11:00 PM
Jul 30
66 °FPassing clouds.6 mph78%30.09 "HgN/A
10:00 PM68 °FPassing clouds.6 mph73%30.09 "HgN/A
9:00 PM68 °FPassing clouds.8 mph73%30.07 "HgN/A
8:00 PM70 °FPassing clouds.10 mph69%30.07 "HgN/A
7:00 PM72 °FPassing clouds.10 mph65%30.04 "HgN/A
6:00 PM75 °FPassing clouds.5 mph61%30.01 "HgN/A
5:00 PM77 °FPassing clouds.7 mph61%30.01 "HgN/A
4:00 PM77 °FPassing clouds.9 mph65%29.98 "HgN/A
3:00 PM79 °FPassing clouds.12 mph58%29.98 "HgN/A
2:00 PM79 °FScattered clouds.14 mph58%30.01 "HgN/A
1:00 PM82 °FPassing clouds.7 mph42%30.04 "HgN/A
12:00 PM81 °FPassing clouds.7 mph48%30.04 "HgN/A
11:00 AM81 °FPassing clouds.9 mph48%30.07 "HgN/A
10:00 AM77 °FPassing clouds.12 mph54%30.07 "HgN/A
9:00 AM73 °FPassing clouds.10 mph65%30.09 "HgN/A
8:00 AM68 °FPassing clouds.5 mph78%30.07 "HgN/A
7:00 AM63 °FPassing clouds.2 mph94%30.04 "HgN/A
Weather by CustomWeather, © 2014

See weather overviewHow to use our weather pages